Massena, NY

2:25 PM EDT on August 23, 2019 (GMT -0400)
Massena International-Richards

Weather History for KMSS - July, 2019

Change the Weather History Date:

Thursday, July 18, 2019

  Actual Average Record
Temperature  
Mean Temperature 71 °F 69 °F  
Max Temperature 82 °F 80 °F 95 °F (1953)
Min Temperature 59 °F 58 °F 46 °F (1956)
Degree Days  
Heating Degree Days 0 1  
Month to date heating degree days 0 18  
Since 1 June heating degree days 97 114  
Since 1 July heating degree days 0 18  
Cooling Degree Days 6 5  
Month to date cooling degree days 124 87  
Year to date cooling degree days 183 176  
Since 1 June cooling degree days 182 162  
Growing Degree Days 20 (Base 50)    
Moisture  
Dew Point 60 °F    
Average Humidity 74    
Maximum Humidity 100    
Minimum Humidity 48    
Precipitation  
Precipitation 0.00 in 0.11 in 0.76 in (1963)
Month to date precipitation 1.06 2.01  
Year to date precipitation 15.55 17.46  
Sea Level Pressure  
Sea Level Pressure 29.94 in    
Wind  
Wind Speed 7 mph (NE)    
Max Wind Speed 16 mph    
Max Gust Speed 20 mph    
Visibility 8 miles    
Events      
T = Trace of Precipitation, MM = Missing Value Source: NWS Daily Summary

Daily Weather History Graph

Daily Weather History Graph

Search for Another Location

Airport or City:

Astronomy

Jul. 18, 2019 Rise Set
Actual Time 5:29 AM EDT 8:40 PM EDT
Civil Twilight 4:54 AM EDT 9:16 PM EDT
Nautical Twilight 4:08 AM EDT 10:02 PM EDT
Astronomical Twilight 3:11 AM EDT 10:57 PM EDT
Moon 10:02 PM EDT (7/18) 6:58 AM EDT (7/18)
Length of Visible Light 16h 22m
Length of Day
15h 11m
Full, 97% of the Moon is Illuminated
Jul 18
Full
Jul 24
Last Quarter
Jul 31
New
Aug 7
First Quarter
Aug 15
Full

Hourly Weather History & Observations

Time (EDT) Temp. Heat Index Dew Point Humidity Pressure Visibility Wind Dir Wind Speed Gust Speed Precip Events Conditions
12:04 AM 61.0 °F - 60.1 °F 97% 29.96 in 2.5 mi Calm Calm - N/A   Clear
12:11 AM 63.0 °F - 61.0 °F 93% 29.97 in 10.0 mi Calm Calm - N/A   Clear
12:53 AM 62.1 °F - 60.1 °F 93% 29.96 in 10.0 mi NE 3.5 mph - N/A   Partly Cloudy
1:25 AM 64.9 °F - 62.1 °F 90% 29.96 in 10.0 mi ENE 5.8 mph - N/A   Scattered Clouds
1:32 AM 64.9 °F - 63.0 °F 93% 29.96 in 6.0 mi ENE 6.9 mph - N/A   Mostly Cloudy
1:40 AM 66.0 °F - 64.0 °F 93% 29.96 in 1.8 mi East 3.5 mph - N/A   Mostly Cloudy
1:49 AM 64.4 °F - 64.4 °F 100% 29.96 in 1.0 mi ENE 5.8 mph - N/A   Overcast
1:53 AM 64.9 °F - 64.0 °F 97% 29.96 in 1.0 mi NE 5.8 mph - N/A   Overcast
2:23 AM 64.9 °F - 64.0 °F 97% 29.95 in 2.0 mi ENE 4.6 mph - N/A   Mostly Cloudy
2:35 AM 64.0 °F - 63.0 °F 96% 29.95 in 1.2 mi NE 4.6 mph - N/A   Mostly Cloudy
2:41 AM 64.0 °F - 63.0 °F 96% 29.96 in 2.0 mi NE 5.8 mph - N/A   Scattered Clouds
2:49 AM 64.4 °F - 62.6 °F 94% 29.96 in 10.0 mi NE 5.8 mph - N/A   Partly Cloudy
2:53 AM 64.0 °F - 63.0 °F 96% 29.96 in 10.0 mi NE 5.8 mph - N/A   Partly Cloudy
3:53 AM 64.9 °F - 63.0 °F 93% 29.97 in 10.0 mi NE 4.6 mph - N/A   Clear
4:53 AM 62.1 °F - 59.0 °F 90% 30.00 in 10.0 mi NNE 6.9 mph - N/A   Clear
5:53 AM 59.0 °F - 55.0 °F 87% 30.01 in 10.0 mi ENE 5.8 mph - N/A   Clear
6:53 AM 63.0 °F - 55.9 °F 78% 30.01 in 10.0 mi ENE 9.2 mph - N/A   Clear
7:53 AM 64.9 °F - 55.0 °F 70% 30.01 in 10.0 mi ENE 10.4 mph - N/A   Clear
8:53 AM 69.1 °F - 55.0 °F 61% 30.01 in 10.0 mi ENE 11.5 mph - N/A   Clear
9:53 AM 71.1 °F - 57.0 °F 61% 30.01 in 10.0 mi NNE 13.8 mph - N/A   Clear
10:53 AM 73.9 °F - 57.0 °F 55% 30.01 in 10.0 mi NE 10.4 mph - N/A   Clear
11:53 AM 75.9 °F - 59.0 °F 56% 29.97 in 10.0 mi NE 12.7 mph - N/A   Clear
12:53 PM 78.1 °F - 57.9 °F 50% 29.95 in 10.0 mi ENE 12.7 mph - N/A   Clear
2:53 PM 81.0 °F 81.6 °F 60.1 °F 49% 29.93 in 10.0 mi NNE 11.5 mph - N/A   Partly Cloudy
3:53 PM 81.0 °F 81.3 °F 59.0 °F 47% 29.92 in 10.0 mi NNE 10.4 mph - N/A   Scattered Clouds
4:53 PM 81.0 °F 81.6 °F 60.1 °F 49% 29.91 in 10.0 mi East 9.2 mph - N/A   Clear
5:53 PM 80.1 °F 80.7 °F 59.0 °F 48% 29.89 in 10.0 mi NE 8.1 mph - N/A   Clear
6:53 PM 79.0 °F - 60.1 °F 52% 29.87 in 10.0 mi ENE 5.8 mph - N/A   Clear
7:53 PM 75.9 °F - 62.1 °F 62% 29.86 in 10.0 mi NNE 4.6 mph - N/A   Clear
8:53 PM 69.1 °F - 63.0 °F 81% 29.85 in 10.0 mi Calm Calm - N/A   Clear
9:53 PM 66.0 °F - 62.1 °F 87% 29.85 in 10.0 mi Calm Calm - N/A   Clear
10:53 PM 66.0 °F - 61.0 °F 84% 29.84 in 10.0 mi Calm Calm - N/A   Clear
11:53 PM 64.9 °F - 61.0 °F 87% 29.83 in 10.0 mi Calm Calm - N/A   Clear